Stations météo

réclame
Mon MeteoGroup
Murcia/Alcantarilla, Espagne (8429): Température de l'air & dewpoint: 20.09.2018 17:00:00 - 26.09.2018 17:00:00 (CEST)Murcia/Alcantarilla, Espagne (8429): Vitesse du vent: 20.09.2018 17:00:00 - 26.09.2018 17:00:00 (CEST)Murcia/Alcantarilla, Espagne (8429): Direction du vent: 20.09.2018 17:00:00 - 26.09.2018 17:00:00 (CEST)Murcia/Alcantarilla, Espagne (8429): reduced air pressure: 20.09.2018 17:00:00 - 26.09.2018 17:00:00 (CEST)Murcia/Alcantarilla, Espagne (8429): visibility: 20.09.2018 17:00:00 - 26.09.2018 17:00:00 (CEST)
Date & Time tt [°C] td [°C] ff [km/h] ff [knt] dd ppp [hPa] vv [km]
26.09.2018 17:00:00 - - - - - - -
26.09.2018 16:00:00 - - - - - - -
26.09.2018 15:00:00 - - - - - - -
26.09.2018 14:00:00 28,8 21,0 28 15 E 1026,3 50
26.09.2018 13:00:00 - - - - - - -
26.09.2018 12:00:00 - - - - - - -
26.09.2018 11:00:00 26,0 19,6 4 2 N 1026,8 50
26.09.2018 10:00:00 - - - - - - -
26.09.2018 09:00:00 - - - - - - -
26.09.2018 08:00:00 22,1 20,2 4 2 N 1025,9 40
26.09.2018 07:00:00 - - - - - - -
26.09.2018 06:00:00 - - - - - - -
26.09.2018 05:00:00 - - - - - - -
26.09.2018 04:00:00 - - - - - - -
26.09.2018 03:00:00 - - - - - - -
26.09.2018 02:00:00 - - - - - - -
26.09.2018 01:00:00 - - - - - - -
26.09.2018 00:00:00 - - - - - - -
25.09.2018 23:00:00 - - - - - - -
25.09.2018 22:00:00 - - - - - - -
25.09.2018 21:00:00 - - - - - - -
25.09.2018 20:00:00 26,2 21,6 15 8 E 1021,8 40
25.09.2018 19:00:00 - - - - - - -
25.09.2018 18:00:00 - - - - - - -
25.09.2018 17:00:00 29,0 21,2 15 8 E 1021,6 50
25.09.2018 16:00:00 - - - - - - -
25.09.2018 15:00:00 - - - - - - -
25.09.2018 14:00:00 27,8 21,6 13 7 E 1022,8 40
25.09.2018 13:00:00 - - - - - - -
25.09.2018 12:00:00 - - - - - - -
25.09.2018 11:00:00 25,2 21,7 4 2 N 1023,2 20
25.09.2018 10:00:00 - - - - - - -
25.09.2018 09:00:00 - - - - - - -
25.09.2018 08:00:00 21,4 20,0 4 2 N 1021,7 14
25.09.2018 07:00:00 - - - - - - -
25.09.2018 06:00:00 - - - - - - -
25.09.2018 05:00:00 - - - - - - -
25.09.2018 04:00:00 - - - - - - -
25.09.2018 03:00:00 - - - - - - -
25.09.2018 02:00:00 - - - - - - -
25.09.2018 01:00:00 - - - - - - -
25.09.2018 00:00:00 - - - - - - -
24.09.2018 23:00:00 - - - - - - -
24.09.2018 22:00:00 - - - - - - -
24.09.2018 21:00:00 - - - - - - -
24.09.2018 20:00:00 28,6 19,5 11 6 ESE 1019,2 50
24.09.2018 19:00:00 - - - - - - -
24.09.2018 18:00:00 - - - - - - -
24.09.2018 17:00:00 34,0 17,7 13 7 ESE 1018,7 50
24.09.2018 16:00:00 - - - - - - -
24.09.2018 15:00:00 - - - - - - -
24.09.2018 14:00:00 32,4 17,8 8 4 N 1020,7 40
24.09.2018 13:00:00 - - - - - - -
24.09.2018 12:00:00 - - - - - - -
24.09.2018 11:00:00 27,5 16,8 4 2 N 1021,4 40
24.09.2018 10:00:00 - - - - - - -
24.09.2018 09:00:00 - - - - - - -
24.09.2018 08:00:00 - - - - - - -
24.09.2018 07:00:00 - - - - - - -
24.09.2018 06:00:00 - - - - - - -
24.09.2018 05:00:00 - - - - - - -
24.09.2018 04:00:00 - - - - - - -
24.09.2018 03:00:00 - - - - - - -
24.09.2018 02:00:00 - - - - - - -
24.09.2018 01:00:00 - - - - - - -
24.09.2018 00:00:00 - - - - - - -
23.09.2018 23:00:00 - - - - - - -
23.09.2018 22:00:00 - - - - - - -
23.09.2018 21:00:00 - - - - - - -
23.09.2018 20:00:00 30,0 16,4 13 7 SW 1020,3 50
23.09.2018 19:00:00 - - - - - - -
23.09.2018 18:00:00 - - - - - - -
23.09.2018 17:00:00 34,2 15,1 21 11 SE 1019,9 50
23.09.2018 16:00:00 - - - - - - -
23.09.2018 15:00:00 - - - - - - -
23.09.2018 14:00:00 33,5 13,5 5 3 SE 1022,0 50
23.09.2018 13:00:00 - - - - - - -
23.09.2018 12:00:00 - - - - - - -
23.09.2018 11:00:00 25,8 15,8 2 1 E 1023,4 50
23.09.2018 10:00:00 - - - - - - -
23.09.2018 09:00:00 - - - - - - -
23.09.2018 08:00:00 18,8 17,5 5 3 SW 1022,6 50
23.09.2018 07:00:00 - - - - - - -
23.09.2018 06:00:00 - - - - - - -
23.09.2018 05:00:00 - - - - - - -
23.09.2018 04:00:00 - - - - - - -
23.09.2018 03:00:00 - - - - - - -
23.09.2018 02:00:00 - - - - - - -
23.09.2018 01:00:00 - - - - - - -
23.09.2018 00:00:00 - - - - - - -
22.09.2018 23:00:00 - - - - - - -
22.09.2018 22:00:00 - - - - - - -
22.09.2018 21:00:00 - - - - - - -
22.09.2018 20:00:00 30,2 21,0 5 3 SW 1020,3 20
22.09.2018 19:00:00 - - - - - - -
22.09.2018 18:00:00 - - - - - - -
22.09.2018 17:00:00 32,2 22,0 15 8 ESE 1020,1 20
22.09.2018 16:00:00 - - - - - - -
22.09.2018 15:00:00 - - - - - - -
22.09.2018 14:00:00 31,1 19,1 2 1 N 1021,5 20
22.09.2018 13:00:00 - - - - - - -
22.09.2018 12:00:00 - - - - - - -
22.09.2018 11:00:00 25,0 19,1 2 1 S 1022,8 20
22.09.2018 10:00:00 - - - - - - -
22.09.2018 09:00:00 - - - - - - -
22.09.2018 08:00:00 20,0 18,5 8 4 WSW 1021,4 20
22.09.2018 07:00:00 - - - - - - -
22.09.2018 06:00:00 - - - - - - -
22.09.2018 05:00:00 - - - - - - -
22.09.2018 04:00:00 - - - - - - -
22.09.2018 03:00:00 - - - - - - -
22.09.2018 02:00:00 - - - - - - -
22.09.2018 01:00:00 - - - - - - -
22.09.2018 00:00:00 - - - - - - -
21.09.2018 23:00:00 - - - - - - -
21.09.2018 22:00:00 - - - - - - -
21.09.2018 21:00:00 - - - - - - -
21.09.2018 20:00:00 29,2 19,2 15 8 SW 1016,6 40
21.09.2018 19:00:00 - - - - - - -
21.09.2018 18:00:00 - - - - - - -
21.09.2018 17:00:00 34,2 17,0 13 7 SW 1016,2 50
21.09.2018 16:00:00 - - - - - - -
21.09.2018 15:00:00 - - - - - - -
21.09.2018 14:00:00 31,4 16,9 8 4 SW 1018,2 40
21.09.2018 13:00:00 - - - - - - -
21.09.2018 12:00:00 - - - - - - -
21.09.2018 11:00:00 25,0 19,6 4 2 N 1019,0 30
21.09.2018 10:00:00 - - - - - - -
21.09.2018 09:00:00 - - - - - - -
21.09.2018 08:00:00 19,9 18,4 4 2 SW 1018,2 20
21.09.2018 07:00:00 - - - - - - -
21.09.2018 06:00:00 - - - - - - -
21.09.2018 05:00:00 - - - - - - -
21.09.2018 04:00:00 - - - - - - -
21.09.2018 03:00:00 - - - - - - -
21.09.2018 02:00:00 - - - - - - -
21.09.2018 01:00:00 - - - - - - -
21.09.2018 00:00:00 - - - - - - -
20.09.2018 23:00:00 - - - - - - -
20.09.2018 22:00:00 - - - - - - -
20.09.2018 21:00:00 - - - - - - -
20.09.2018 20:00:00 27,6 19,9 13 7 SSE 1017,5 40
20.09.2018 19:00:00 - - - - - - -
20.09.2018 18:00:00 - - - - - - -
20.09.2018 17:00:00 31,8 17,3 8 4 SE 1017,6 50

tt = Température de l'air
td = dewpoint
ff = Vitesse du vent
dd = Direction du vent
ppp = reduced air pressure
vv = visibility

stations d'obs. à proximité